Home > Weather > La-Chaux-de-Fonds > Past weeks

Flag for Switzerland Weather for the Past 2 Weeks in La-Chaux-de-Fonds, Neuchâtel, Switzerland

Now
39 °F

Sprinkles. Partly sunny.


Feels Like: 32 °F
Forecast: 31 / 41 °F
Wind: 13 mph from Southwest

Location: Les Eplatures

Current Time: Feb 8, 2016 at 10:26:30 AM

Latest Report: Feb 8, 2016 at 9:50 AM


Visibility: N/A

Pressure: 29.80 "Hg (26.34 "Hg at 1000m altitude)

Humidity: 81%

Dew point: 34 °F

Location of La-Chaux-de-FondsLocation

Historic Weather in La-Chaux-de-Fonds — Graph

°F

La-Chaux-de-Fonds Temperature Yesterday

Maximum temperature yesterday: 45 °F (at 12:20 AM)
Minimum temperature yesterday: 30 °F (at 7:20 PM)
Average temperature yesterday: 37 °F

High & Low Weather Summary for the Past Weeks

 TemperatureHumidityPressure
High52 °F (Jan 26, 1:20 PM)100% (Jan 29, 12:20 AM)30.54 "Hg (Jan 29, 12:20 AM)
Low27 °F (Jan 25, 4:20 AM)40% (Jan 25, 2:20 PM)29.62 "Hg (Feb 7, 5:50 AM)
Average38 °F84%30.23 "Hg
* Reported Jan 24 9:20 AM — Feb 8 9:20 AM, La-Chaux-de-Fonds, Weather by CustomWeather, © 2016

Note: Actual official high and low records may vary slightly from our data, if they occured in-between our weather recording intervals... More about our weather records

Advertising

La-Chaux-de-Fonds Weather History for the Previous 24 Hours

 ConditionsComfort  
Time TempWeatherWind HumidityBarometerVisibility
9:20 AM
Mon, Feb 8
39 °FSprinkles. Partly sunny.16 mph75%29.80 "HgN/A
8:50 AM37 °FPartly sunny.15 mph75%29.80 "HgN/A
8:20 AM37 °FPartly cloudy.15 mph81%29.80 "HgN/A
7:50 AM37 °FOvercast.17 mph81%29.80 "HgN/A
7:20 AM37 °FOvercast.13 mph81%29.80 "HgN/A
6:50 AM37 °FOvercast.10 mph81%29.83 "HgN/A
6:20 AM36 °FOvercast.7 mph87%29.83 "HgN/A
5:50 AM36 °FOvercast.7 mph87%29.83 "HgN/A
5:20 AM36 °FPartly cloudy.9 mph81%29.83 "HgN/A
4:20 AM34 °FOvercast.2 mph81%29.83 "HgN/A
3:50 AM34 °FOvercast.6 mph81%29.86 "HgN/A
3:20 AM32 °FClear.6 mph87%29.86 "HgN/A
2:50 AM30 °FClear.5 mph93%29.86 "Hg10 mi
2:20 AM28 °FClear.7 mph93%29.86 "Hg10 mi
1:50 AM30 °FClear.8 mph93%29.89 "Hg10 mi
1:20 AM32 °FClear.7 mph87%29.89 "Hg10 mi
12:50 AM32 °FChilly.6 mph87%29.89 "HgN/A
12:20 AM32 °FPassing clouds.7 mph87%29.89 "HgN/A
11:50 PM
Sun, Feb 7
32 °FClear.6 mph87%29.89 "Hg10 mi
11:20 PM32 °FClear.7 mph87%29.92 "Hg10 mi
10:50 PM32 °FClear.6 mph87%29.92 "Hg10 mi
10:20 PM32 °FClear.5 mph93%29.92 "Hg10 mi
9:50 PM32 °FClear.6 mph87%29.92 "HgN/A
9:20 PM32 °FPartly cloudy.6 mph87%29.89 "HgN/A
8:50 PM30 °FClear.5 mph93%29.89 "HgN/A
8:20 PM30 °FClear.5 mph93%29.89 "Hg10 mi
7:50 PM30 °FClear.6 mph100%29.89 "Hg10 mi
7:20 PM30 °FClear.7 mph93%29.89 "Hg10 mi
6:50 PM32 °FClear.6 mph93%29.86 "HgN/A
6:20 PM34 °FBroken clouds.8 mph87%29.86 "HgN/A
5:50 PM34 °FPartly sunny.7 mph93%29.86 "HgN/A
5:20 PM34 °FPartly sunny.6 mph93%29.83 "HgN/A
4:20 PM34 °FPartly sunny.3 mph93%29.80 "HgN/A
3:50 PM34 °FSnow. More clouds than sun.5 mph93%29.80 "Hg2 mi
3:20 PM34 °FLight snow. Partly sunny.7 mph93%29.80 "Hg4 mi
2:50 PM34 °FLight snow. Partly sunny.6 mph93%29.80 "Hg2 mi
2:20 PM34 °FSnow. Dense fog.6 mph93%29.77 "Hg1 mi
1:50 PM32 °FSnow. Dense fog.5 mph100%29.77 "Hg1 mi
1:20 PM32 °FSnow. Dense fog.6 mph100%29.77 "Hg1 mi
12:50 PM32 °FSnow. Dense fog.6 mph100%29.74 "Hg1 mi
12:20 PM32 °FSnow. Dense fog.7 mph100%29.74 "Hg1 mi
11:50 AM32 °FSnow. Dense fog.7 mph100%29.74 "Hg1 mi
11:20 AM32 °FSnow. Dense fog.8 mph100%29.71 "Hg1 mi
10:50 AM34 °FMixture of precip. Low clouds.10 mph93%29.68 "Hg1 mi
10:20 AM37 °FRain. Partly sunny.10 mph93%29.68 "HgN/A
Weather by CustomWeather, © 2016

See weather overviewHow to use our weather pages